Change the Weather History Date:

Thursday, February 13, 2014

  Actual Average (KJLN) Record (KJLN)
Temperature  
Mean Temperature 38 °F 39 °F  
Max Temperature 52 °F 50 °F 78 °F (1962)
Min Temperature 24 °F 29 °F 11 °F (1958)
Degree Days  
Heating Degree Days 27 26  
Month to date heating degree days 355  
Since 1 July heating degree days 2904  
Cooling Degree Days 0 0  
Month to date cooling degree days 0  
Year to date cooling degree days 0  
Moisture  
Dew Point 31 °F    
Average Humidity 82    
Maximum Humidity 100    
Minimum Humidity 51    
Precipitation  
Precipitation 0.00 in 0.09 in 0.88 in (2001)
Month to date precipitation 0.98  
Year to date precipitation 3.01  
Sea Level Pressure  
Sea Level Pressure 29.88 in    
Wind  
Wind Speed 5 mph (SW)    
Max Wind Speed 15 mph    
Max Gust Speed 20 mph    
Visibility 8 miles    
Events      
T = Trace of Precipitation, MM = Missing Value Source: NWS Daily Summary

Daily Weather History Graph

Daily Weather History Graph

Search for Another Location

Airport or City:

Trip Planner

Search our weather history database for the weather conditions in past years. The results will help you decide how hot, cold, wet, or windy it might be!

Date:

Astronomy

Feb. 13, 2014 Rise Set
Actual Time 7:10 AM CST 5:56 PM CST
Civil Twilight 6:43 AM CST 6:23 PM CST
Nautical Twilight 6:12 AM CST 6:53 PM CST
Astronomical Twilight 5:42 AM CST 7:24 PM CST
Moon 5:05 PM CST (2/13) 6:03 AM CST (2/13)
Length of Visible Light 11h 39m
Length of Day
10h 45m
Waxing Gibbous, 99% of the Moon is Illuminated
Feb 13
Waxing Gibbous
Feb 14
Full
Feb 22
Last Quarter
Mar 1
New
Mar 8
First Quarter

Hourly Weather History & Observations

Time (CST) Temp. Windchill Dew Point Humidity Pressure Visibility Wind Dir Wind Speed Gust Speed Precip Events Conditions
12:15 AM 28.9 °F - 28.9 °F 100% 29.99 in 7.0 mi Calm Calm - N/A   Unknown
12:35 AM 29.7 °F - 29.1 °F 98% 29.98 in 7.0 mi Calm Calm - N/A   Unknown
12:55 AM 27.5 °F 23.6 °F 27.5 °F 100% 29.99 in 7.0 mi SW 3.5 mph - N/A   Unknown
1:15 AM 28.0 °F 24.2 °F 28.2 °F 100% 29.97 in 5.0 mi SSE 3.5 mph - N/A   Unknown
1:35 AM 27.7 °F 21.3 °F 27.7 °F 100% 29.96 in 5.0 mi South 5.8 mph - N/A   Unknown
1:55 AM 27.5 °F 21.1 °F 27.7 °F 100% 29.95 in 5.0 mi SSW 5.8 mph - N/A   Unknown
2:15 AM - - - N/A% 29.93 in 5.0 mi SE 5.8 mph - N/A   Unknown
2:35 AM 28.0 °F 24.2 °F 28.2 °F 100% 29.93 in 5.0 mi SW 3.5 mph - N/A   Unknown
2:55 AM 28.2 °F - 28.4 °F 100% 29.94 in 5.0 mi Calm Calm - N/A   Unknown
3:15 AM 28.2 °F - 28.4 °F 100% 29.95 in 5.0 mi Calm Calm - N/A   Unknown
3:35 AM 28.8 °F 25.0 °F 28.9 °F 100% 29.95 in 5.0 mi West 3.5 mph - N/A   Unknown
3:55 AM 30.7 °F 26.0 °F 30.9 °F 100% 29.95 in 5.0 mi WSW 4.6 mph - N/A   Unknown
4:15 AM - - - N/A% 29.93 in 5.0 mi SW 4.6 mph - N/A   Unknown
4:35 AM 28.2 °F 24.4 °F 28.4 °F 100% 29.93 in 5.0 mi SSW 3.5 mph - N/A   Unknown
4:55 AM 27.9 °F 22.6 °F 28.0 °F 100% 29.92 in 5.0 mi South 4.6 mph - N/A   Unknown
5:15 AM 25.9 °F 20.3 °F 25.9 °F 100% 29.92 in 5.0 mi South 4.6 mph - N/A   Unknown
5:35 AM 24.3 °F 19.9 °F 24.4 °F 100% 29.93 in 4.0 mi SSW 3.5 mph - N/A   Unknown
5:55 AM 26.4 °F 20.9 °F 26.6 °F 100% 29.92 in 5.0 mi South 4.6 mph - N/A   Unknown
6:15 AM 26.6 °F 21.2 °F 26.8 °F 100% 29.92 in 4.0 mi South 4.6 mph - N/A   Unknown
6:35 AM 26.2 °F 22.1 °F 26.2 °F 100% 29.93 in 5.0 mi SW 3.5 mph - N/A   Unknown
6:55 AM 26.1 °F 18.4 °F 26.1 °F 100% 29.92 in 5.0 mi SSW 6.9 mph - N/A   Unknown
7:15 AM 26.6 °F 19.1 °F 26.6 °F 100% 29.93 in 4.0 mi SW 6.9 mph - N/A   Unknown
7:35 AM 26.6 °F 19.1 °F 26.6 °F 100% 29.93 in 4.0 mi SW 6.9 mph - N/A   Unknown
7:55 AM 28.0 °F 19.3 °F 28.2 °F 100% 29.92 in 4.0 mi SW 9.2 mph - N/A   Unknown
8:15 AM 30.2 °F 21.3 °F 30.4 °F 100% 29.92 in 5.0 mi SW 10.4 mph - N/A   Unknown
8:35 AM 30.9 °F 24.3 °F 30.2 °F 97% 29.93 in 5.0 mi SW 6.9 mph - N/A   Unknown
8:55 AM 32.5 °F 26.2 °F 30.9 °F 94% 29.93 in 5.0 mi SW 6.9 mph - N/A   Unknown
9:15 AM 34.5 °F 27.3 °F 31.6 °F 89% 29.93 in 7.0 mi SW 9.2 mph - N/A   Unknown
9:35 AM 35.6 °F 27.5 °F 32.0 °F 87% 29.94 in 7.0 mi SW 11.5 mph - N/A   Unknown
9:55 AM 35.6 °F 27.5 °F 31.8 °F 86% 29.93 in 7.0 mi SW 11.5 mph - N/A   Unknown
10:15 AM 37.0 °F 29.8 °F 32.4 °F 83% 29.94 in 7.0 mi SW 10.4 mph - N/A   Unknown
10:35 AM 37.9 °F 30.0 °F 31.8 °F 79% 29.92 in 7.0 mi SW 12.7 mph - N/A   Unknown
10:55 AM 39.2 °F 31.2 °F 31.6 °F 74% 29.93 in 10.0 mi SW 13.8 mph - N/A   Unknown
11:15 AM 40.5 °F 33.6 °F 32.0 °F 72% 29.92 in 10.0 mi SW 11.5 mph - N/A   Unknown
11:35 AM 41.9 °F 35.4 °F 32.2 °F 68% 29.90 in 10.0 mi WSW 11.5 mph - N/A   Unknown
11:55 AM 43.0 °F 35.7 °F 32.4 °F 66% 29.89 in 10.0 mi SW 15.0 mph - N/A   Unknown
12:15 PM 43.7 °F 37.7 °F 32.5 °F 65% 29.88 in 10.0 mi WSW 11.5 mph - N/A   Unknown
12:35 PM 45.5 °F 39.6 °F 33.3 °F 62% 29.87 in 10.0 mi WSW 12.7 mph 19.6 mph N/A   Unknown
12:55 PM 47.7 °F - 34.3 °F 60% 29.86 in 10.0 mi West 11.5 mph 19.6 mph N/A   Unknown
1:35 PM 49.8 °F - 35.2 °F 57% 29.84 in 10.0 mi WSW 12.7 mph 19.6 mph N/A   Unknown
1:55 PM 50.9 °F - 35.8 °F 56% 29.83 in 10.0 mi West 10.4 mph 18.4 mph N/A   Unknown
2:15 PM 50.9 °F - 35.2 °F 55% 29.82 in 10.0 mi WSW 11.5 mph - N/A   Unknown
2:35 PM 50.9 °F - 34.9 °F 54% 29.81 in 10.0 mi WSW 9.2 mph - N/A   Unknown
2:55 PM 50.9 °F - 34.2 °F 53% 29.82 in 10.0 mi West 11.5 mph 17.3 mph N/A   Unknown
3:15 PM 51.1 °F - 34.0 °F 52% 29.82 in 10.0 mi West 10.4 mph - N/A   Unknown
3:35 PM - - - N/A% - - North - - N/A   Unknown
3:55 PM 52.2 °F - 35.2 °F 53% 29.81 in 10.0 mi West 8.1 mph - N/A   Clear
4:15 PM 52.2 °F - 35.4 °F 53% 29.81 in 10.0 mi West 8.1 mph - N/A   Clear
4:35 PM 52.3 °F - 34.9 °F 51% 29.82 in 10.0 mi West 8.1 mph - N/A   Clear
4:55 PM 52.0 °F - 34.9 °F 52% 29.82 in 10.0 mi West 8.1 mph - N/A   Clear
5:15 PM 51.3 °F - 34.5 °F 53% 29.82 in 10.0 mi West 5.8 mph - N/A   Clear
5:35 PM 50.9 °F - 35.4 °F 55% 29.82 in 10.0 mi WSW 4.6 mph - N/A   Clear
5:55 PM 50.4 °F - 35.8 °F 57% 29.82 in 10.0 mi Calm Calm - N/A   Clear
6:15 PM 47.1 °F - 34.5 °F 62% 29.82 in 10.0 mi WSW 4.6 mph - N/A   Clear
6:35 PM 45.9 °F 44.6 °F 33.6 °F 62% 29.82 in 10.0 mi WSW 3.5 mph - N/A   Clear
6:55 PM 40.6 °F - 32.0 °F 71% 29.82 in 10.0 mi Calm Calm - N/A   Clear
7:15 PM 37.9 °F 35.5 °F 32.2 °F 80% 29.82 in 10.0 mi SW 3.5 mph - N/A   Clear
7:35 PM 38.5 °F - 32.7 °F 80% 29.82 in 10.0 mi Calm Calm - N/A   Clear
7:55 PM 38.3 °F - 33.4 °F 83% 29.82 in 10.0 mi Calm Calm - N/A   Clear
8:15 PM 36.1 °F - 32.2 °F 86% 29.82 in 10.0 mi Calm Calm - N/A   Clear
8:35 PM 34.5 °F - 32.2 °F 91% 29.82 in 10.0 mi Calm Calm - N/A   Clear
8:55 PM 36.1 °F 32.3 °F 34.2 °F 93% 29.82 in 10.0 mi SSW 4.6 mph - N/A   Clear
9:15 PM 34.9 °F 29.0 °F 32.4 °F 91% 29.81 in 10.0 mi SSW 6.9 mph - N/A   Clear
9:35 PM 32.2 °F 25.0 °F 31.5 °F 97% 29.81 in 10.0 mi SSW 8.1 mph - N/A   Clear
9:55 PM 35.1 °F 30.1 °F 34.2 °F 97% 29.79 in 10.0 mi South 5.8 mph - N/A   Clear
10:15 PM 35.6 °F 32.8 °F 33.4 °F 92% 29.78 in 10.0 mi South 3.5 mph - N/A   Clear
10:35 PM 35.6 °F 31.7 °F 33.1 °F 91% 29.77 in 10.0 mi SSW 4.6 mph - N/A   Clear
10:55 PM 37.2 °F 31.2 °F 33.3 °F 86% 29.77 in 10.0 mi SSW 8.1 mph - N/A   Clear
11:15 PM 37.9 °F 33.5 °F 32.7 °F 81% 29.77 in 10.0 mi SW 5.8 mph - N/A   Clear
11:35 PM 37.8 °F 32.5 °F 32.0 °F 80% 29.75 in 10.0 mi SSW 6.9 mph - N/A   Clear
11:55 PM 37.8 °F 31.8 °F 31.1 °F 77% 29.75 in 10.0 mi SW 8.1 mph - N/A   Clear